Theta_e
295 295 295 295 296 296 296 296 296 295 295 294 294 294 294 294 293 293 292 292 292 293 292 291 291 292 293 293 292 292 292 293 294 296 297 296 297 296 296 296 298 300 302 302 302 303 303 301 301 303 301 299 299 299
294 294 294 294 295 295 295 295 295 294 294 294 294 294 294 293 293 293 292 292 293 293 293 291 291 291 291 292 292 292 292 291 292 294 295 295 296 293 296 296 295 296 297 297 300 300 299 299 298 297 297 297 298 297
295 294 294 294 294 294 294 293 294 293 293 293 293 293 293 294 293 293 292 291 291 292 292 290 291 290 291 292 291 293 293 293 293 293 292 292 292 291 291 293 294 296 296 298 297 296 296 296 295 296 296 297 297 299
294 294 294 293 293 294 294 293 293 293 293 293 293 293 293 293 293 292 292 291 291 291 291 291 288 288 288 289 291 291 292 290 291 292 293 292 292 292 291 291 292 292 293 292 293 293 293 293 295 296 296 296 297 297
293 293 293 293 293 293 293 292 292 292 292 292 292 292 292 293 292 292 292 291 291 292 292 291 290 290 289 288 289 290 291 292 292 291 292 292 292 292 292 291 291 291 291 291 291 291 292 292 293 293 293 293 294 295
292 292 292 292 292 292 292 292 291 291 291 291 291 291 292 292 291 291 292 289 291 291 292 292 291 289 288 287 288 288 289 291 291 290 291 291 291 291 291 291 290 291 292 292 292 292 292 292 293 293 293 293 294 294
291 291 292 292 292 292 291 291 291 291 291 291 291 291 291 291 290 291 290 290 290 290 291 290 291 289 286 288 289 289 287 290 290 290 291 291 291 291 292 292 291 291 291 291 292 292 292 292 293 293 293 293 293 294
291 291 292 292 291 291 291 291 290 290 290 290 291 292 291 291 291 291 291 291 290 290 289 290 291 289 287 289 290 289 290 289 290 290 290 291 290 291 291 290 290 291 291 291 291 292 292 292 292 292 293 293 293 294
291 291 291 291 291 291 291 290 289 290 290 290 290 290 291 290 289 289 290 290 290 290 291 290 289 289 287 289 289 289 288 288 289 290 290 290 290 291 290 290 291 291 291 291 291 292 292 292 292 292 293 293 293 294
291 290 291 290 290 290 291 290 290 290 289 288 289 289 290 289 289 289 288 289 289 290 291 290 287 288 288 288 289 289 290 290 291 290 290 290 291 291 291 291 291 292 292 292 292 292 292 292 293 293 293 293 293 294
290 290 290 290 290 290 290 290 290 289 288 288 287 288 287 288 287 283 285 287 285 287 288 288 288 288 289 289 290 290 291 290 291 292 291 293 294 295 295 294 293 293 294 295 294 294 293 294 294 294 294 294 294 294
289 289 289 289 289 289 289 290 290 289 288 288 288 288 287 284 283 285 282 282 284 288 288 289 290 289 289 289 290 290 290 290 291 292 294 297 296 293 292 291 292 292 291 292 292 293 293 295 294 294 294 295 295 296
288 288 289 288 289 289 289 289 290 289 289 287 287 284 286 281 283 284 283 284 285 285 287 288 289 289 289 290 290 291 291 291 292 295 297 297 293 291 290 290 291 290 290 290 292 291 292 294 293 293 296 297 295 294
289 289 288 288 289 289 289 289 289 289 288 287 286 283 285 281 284 284 285 286 285 285 287 288 288 289 289 290 291 290 293 293 296 298 294 293 291 289 289 291 290 290 289 290 291 293 294 295 295 294 293 293 293 294
289 288 288 288 289 289 289 289 289 288 287 287 284 284 282 283 280 280 278 281 283 284 287 287 287 288 289 289 290 292 294 297 294 293 291 290 289 289 288 290 289 289 288 289 291 291 291 292 291 290 290 291 292 292
289 289 289 288 289 289 288 288 289 288 287 287 284 283 282 282 283 280 279 282 283 285 287 287 287 288 289 291 292 292 295 292 290 289 288 288 288 288 288 289 288 288 287 288 289 290 290 290 289 288 288 288 289 290
289 288 288 288 288 288 289 288 288 288 287 283 284 284 283 283 284 283 281 283 281 287 287 285 287 288 287 289 292 293 290 288 288 287 287 287 287 287 288 288 287 286 286 286 286 286 287 286 287 287 287 286 286 286
288 287 288 288 288 288 288 287 287 286 284 281 284 284 282 282 282 280 279 278 285 285 284 286 285 287 289 288 291 287 286 286 286 286 286 286 286 288 288 287 285 285 285 285 285 285 286 286 286 286 286 286 286 285
288 288 287 288 288 288 285 284 283 283 280 279 279 278 279 281 279 278 279 278 280 283 287 286 286 286 288 287 285 284 284 284 284 284 285 286 287 288 287 286 285 284 284 285 285 284 284 285 285 285 286 286 285 285
289 288 289 289 288 286 278 278 279 280 281 279 278 279 280 282 281 279 279 281 284 286 286 285 285 286 284 283 283 282 282 283 283 284 285 286 288 287 286 286 285 285 285 286 285 285 285 285 285 285 285 285 284 283
287 287 288 288 286 284 276 278 281 281 279 279 277 278 281 281 281 281 282 281 284 284 283 282 282 281 281 280 280 281 281 282 283 284 285 286 287 286 286 285 285 284 284 284 284 284 283 283 283 283 282 282 281 281
286 287 287 286 283 279 274 273 275 275 276 275 275 275 279 281 281 281 279 281 281 279 280 280 280 279 279 280 280 280 281 282 282 283 284 284 285 286 286 285 284 284 283 283 283 282 282 281 281 280 280 279 279 278
286 287 285 282 278 276 275 270 275 270 276 275 272 276 279 281 280 279 281 278 279 279 279 278 278 277 278 279 281 282 281 280 282 283 282 283 282 282 282 282 283 282 282 281 282 281 281 281 280 279 279 278 278 277
285 280 273 274 273 277 268 268 267 270 270 273 272 275 278 281 279 279 281 279 278 278 278 277 277 278 279 280 280 280 280 279 280 282 280 282 281 280 280 280 280 279 280 280 280 280 279 279 279 278 278 277 277 276
285 278 273 275 264 272 272 270 268 272 273 268 272 276 280 278 281 279 279 278 277 278 277 276 276 277 278 279 279 279 279 278 279 281 279 281 281 280 279 279 278 279 279 279 278 278 277 277 277 277 276 276 276 275
279 272 273 272 269 274 273 274 269 271 270 270 273 277 277 279 279 280 278 277 276 276 276 275 275 276 277 278 279 279 279 277 280 279 277 278 280 281 281 280 280 278 278 279 278 278 278 278 278 277 277 277 276 274
277 274 271 275 275 273 273 273 273 273 270 272 275 276 278 279 280 278 276 275 274 274 273 273 274 275 277 277 278 278 279 277 276 276 276 277 279 280 279 279 277 276 278 278 278 277 276 275 275 274 274 275 274 274
270 270 274 269 268 268 269 268 268 270 271 274 276 276 277 277 279 274 274 273 273 273 274 275 275 275 276 277 278 278 280 279 279 278 278 277 277 277 278 277 277 278 278 278 278 278 278 277 276 276 275 275 275 276
272 272 271 266 265 266 267 270 271 273 274 274 276 277 276 275 272 272 272 272 272 273 273 273 274 275 277 278 278 278 279 281 281 280 279 278 277 276 276 277 277 278 278 278 278 279 279 278 277 277 276 275 275 275
269 269 270 264 269 271 268 267 266 265 270 273 274 275 274 274 273 272 272 272 271 272 272 273 273 273 273 274 276 278 279 281 280 279 279 278 276 276 277 277 277 277 277 277 276 276 275 276 276 276 275 275 275 275
269 267 267 267 268 265 264 264 265 269 268 270 272 274 275 274 273 272 272 272 272 272 273 272 273 273 272 273 274 275 277 279 279 279 278 277 277 278 278 278 278 278 278 277 277 276 276 276 275 275 275 275 274 275
267 264 268 270 267 263 262 261 262 264 265 271 273 272 273 274 276 273 271 271 272 271 272 271 271 272 274 275 275 276 277 277 277 278 278 278 278 278 278 278 278 278 278 278 277 276 277 276 276 275 275 274 274 274
261 262 261 262 264 266 263 263 265 265 266 267 270 270 270 271 274 271 271 271 271 271 271 273 274 275 276 276 276 277 277 278 278 278 278 278 278 278 278 278 278 278 278 277 277 276 276 276 275 275 275 275 274 274
Wind_Speed
19 18 17 16 14 13 13 13 11 9 10 8 5 3 2 2 2 2 2 1 1 1 3 6 3 4 2 2 3 1 3 2 2 4 3 5 5 4 4 9 6 10 6 7 10 9 15 11 3 6 5 9 9 12
20 18 17 16 15 14 13 12 11 9 7 6 4 3 2 1 2 3 2 3 3 2 3 3 8 10 11 12 5 3 2 2 2 2 2 2 3 2 3 7 3 10 11 8 8 6 1 2 5 8 6 10 14 16
20 18 17 14 12 11 11 10 9 8 7 6 4 3 1 1 1 6 4 4 3 2 5 3 5 4 13 21 17 5 3 5 4 3 3 4 8 4 7 9 8 4 2 6 11 11 16 16 16 17 15 16 17 13
17 15 14 11 10 10 10 10 9 9 6 4 3 1 0 1 1 5 5 7 5 2 2 3 4 9 9 15 17 20 17 3 1 2 6 7 9 6 10 12 14 12 11 14 20 19 20 22 21 20 19 13 13 17
15 13 11 11 10 10 9 9 9 7 4 3 1 0 1 1 2 4 8 9 11 3 2 5 15 23 16 16 19 15 17 11 6 5 5 8 8 9 11 12 14 14 20 15 17 18 19 20 20 23 21 19 19 18
14 13 12 11 11 11 10 9 7 5 4 2 1 1 0 1 2 3 1 3 11 10 2 2 4 8 1 6 9 13 14 8 6 4 5 6 15 9 9 15 20 21 22 22 26 22 24 24 23 25 24 21 21 20
12 11 12 12 11 11 10 8 6 4 3 3 3 3 2 2 7 2 1 1 5 12 2 3 4 1 2 1 2 3 7 5 6 5 7 11 11 7 10 18 24 24 22 24 24 22 27 27 21 23 18 19 23 20
12 11 12 13 11 10 8 7 4 3 1 1 1 2 3 3 4 4 4 4 10 3 2 3 4 4 0 2 3 3 3 4 6 5 6 9 8 8 9 28 26 24 25 24 26 22 25 27 24 23 24 18 19 19
12 13 12 13 12 10 8 5 4 4 2 0 1 4 5 2 2 1 3 3 14 4 2 2 2 4 1 2 3 2 3 4 4 5 7 5 8 9 20 20 20 20 21 26 23 23 25 27 28 23 21 20 19 19
14 12 13 12 12 10 8 7 6 3 1 2 3 2 2 2 2 1 2 1 1 2 2 2 1 4 1 2 2 3 3 3 3 5 3 4 11 21 22 24 24 26 24 21 21 21 20 20 21 22 20 18 17 16
14 13 13 12 10 8 7 6 4 2 2 2 2 1 2 1 1 3 1 1 1 2 2 3 5 3 3 4 4 3 3 3 4 2 5 4 3 1 9 15 14 15 14 16 21 24 19 17 17 16 15 15 13 16
15 13 11 9 7 5 5 5 5 2 3 4 3 3 2 3 2 2 1 1 3 3 2 3 3 4 4 3 3 3 3 3 6 2 4 3 4 16 16 19 16 14 15 16 18 21 19 20 18 15 12 11 12 14
11 10 8 6 4 2 5 5 5 3 7 2 3 2 1 1 2 4 3 2 2 2 3 2 3 2 2 4 4 4 5 6 2 3 3 3 11 15 18 18 18 15 15 17 14 14 17 15 17 14 10 8 8 10
9 7 5 3 2 1 1 4 8 10 2 2 2 2 3 2 4 5 4 3 2 3 3 3 3 3 2 3 3 4 4 4 4 2 5 8 16 18 17 15 15 17 16 15 11 2 8 8 6 2 4 5 7 10
7 5 3 3 2 1 2 4 11 8 3 2 3 3 6 4 3 2 2 3 3 3 2 3 3 3 3 4 3 5 4 2 3 4 7 12 19 18 18 17 17 13 12 11 8 5 6 8 6 5 5 5 7 10
3 3 7 7 5 6 4 7 11 5 4 2 2 2 2 1 2 2 3 4 3 1 1 1 3 3 4 3 4 6 5 3 4 7 11 14 17 18 18 16 14 11 9 8 4 6 8 9 8 9 12 12 11 13
4 3 5 6 7 4 5 5 6 3 3 3 3 3 2 3 4 2 3 2 1 1 1 0 3 6 4 3 4 1 2 5 9 10 10 15 17 18 15 13 12 10 7 6 5 9 9 10 12 14 12 15 19 21
5 4 7 4 5 3 3 2 3 2 5 3 3 2 3 2 2 2 3 2 3 2 2 4 1 3 4 3 3 3 5 9 9 10 11 14 17 15 10 10 11 8 6 7 8 10 11 12 11 9 16 19 24 23
7 5 6 6 5 4 3 1 1 2 4 1 3 2 2 2 4 4 2 3 4 3 2 2 4 3 3 2 5 9 10 10 11 12 12 18 21 10 10 8 6 5 6 7 8 9 13 14 13 13 15 18 17 17
5 4 7 10 11 4 3 0 0 1 2 2 1 2 2 3 1 1 1 2 3 2 3 3 3 1 3 6 7 9 10 10 10 11 11 9 12 7 7 6 6 7 6 9 12 15 15 16 16 16 17 18 19 17
3 4 8 10 3 3 4 1 1 1 2 2 1 2 2 1 2 1 2 1 2 2 3 1 2 5 12 14 16 17 15 14 9 9 10 9 6 5 5 5 7 8 8 8 8 12 15 14 15 18 21 22 23 25
5 10 3 3 3 2 3 3 0 1 1 2 2 2 2 2 1 1 0 1 2 1 1 2 5 7 8 9 15 19 19 20 17 14 13 10 3 2 3 5 6 7 10 10 11 13 16 17 19 21 25 24 26 26
8 5 2 3 4 3 2 4 0 3 1 2 2 2 2 1 1 1 1 1 1 1 3 6 11 14 14 20 18 15 15 16 10 9 9 6 7 8 9 12 9 9 9 13 16 19 19 20 22 24 25 25 26 26
7 3 3 2 2 2 2 2 1 2 2 2 2 4 2 1 1 0 2 1 1 4 4 8 11 8 10 9 5 11 15 15 12 9 12 6 5 8 11 13 15 16 15 17 19 20 20 21 22 24 24 25 23 24
3 1 3 1 2 3 2 3 4 2 2 1 1 3 1 2 1 1 1 2 3 3 5 10 10 8 6 6 10 14 16 14 9 4 13 10 6 8 13 16 19 17 16 20 18 20 20 21 22 22 21 23 24 22
2 2 2 4 1 2 4 2 2 3 1 2 3 2 2 1 1 2 1 2 2 3 6 7 7 7 6 9 7 11 16 17 7 5 12 14 12 6 7 6 6 12 15 19 22 22 22 22 24 25 25 23 23 27
3 4 1 1 1 3 1 1 1 1 1 2 2 2 2 1 2 0 1 1 2 8 15 15 12 10 9 14 14 12 12 13 12 9 12 17 16 13 13 11 11 10 17 23 26 28 27 25 25 26 27 27 25 24
2 2 4 2 2 1 3 1 2 4 2 2 1 1 1 2 1 1 1 7 16 17 15 13 11 12 12 12 12 9 5 6 8 11 19 25 24 23 22 22 20 19 22 25 29 31 32 32 32 30 30 29 26 24
2 1 3 2 2 1 3 3 3 1 0 1 1 1 1 1 1 3 5 14 13 12 11 13 17 16 12 7 8 8 5 3 4 5 10 6 7 16 18 22 24 25 26 27 26 28 30 31 32 32 30 30 27 24
1 1 3 2 3 3 2 2 2 2 1 1 2 1 1 1 2 4 11 12 13 12 13 12 12 13 11 12 11 11 10 12 7 3 3 5 9 16 21 25 27 28 29 30 30 27 25 28 27 28 27 26 24 23
1 2 3 1 2 2 2 3 4 3 2 1 1 1 2 1 1 2 10 12 10 11 12 14 14 14 13 12 10 8 7 8 5 7 18 25 23 22 22 23 25 26 27 28 28 28 27 27 26 25 24 23 20 19
2 2 2 1 1 2 2 2 1 1 2 1 1 1 2 1 1 2 9 14 11 13 12 14 13 15 13 10 5 3 5 10 17 20 20 22 23 22 23 23 24 24 25 26 25 25 24 25 24 23 21 20 18 16
2 1 2 2 2 2 2 2 3 3 2 1 1 1 1 1 1 2 8 11 9 9 15 15 12 11 10 9 10 12 13 15 15 16 17 19 21 22 23 23 23 24 24 25 24 22 22 22 21 20 18 16 15 14
Wind_Direction
145 149 150 149 155 160 160 159 161 162 159 148 146 143 152 82 87 108 139 129 118 229 244 207 198 179 161 208 255 3 262 179 223 230 243 234 245 225 255 247 222 208 204 208 223 237 247 231 221 231 15 318 318 325
148 150 149 149 154 152 148 147 147 157 158 150 162 173 171 288 215 209 142 201 215 260 294 251 241 234 236 247 252 215 292 249 265 262 233 295 265 273 268 250 207 244 236 248 227 226 36 77 329 315 333 312 318 319
152 153 149 150 151 150 152 154 156 169 182 187 194 211 211 356 221 201 193 165 128 299 281 266 239 257 234 235 223 230 223 228 219 239 268 251 246 251 244 236 252 243 225 250 269 256 271 291 300 300 303 301 309 309
146 146 146 144 150 156 158 160 170 162 153 156 170 182 197 282 213 211 195 204 167 141 260 273 295 269 257 232 228 223 241 206 286 219 250 252 250 228 252 257 252 245 259 269 273 275 279 274 277 282 292 310 308 299
145 149 151 148 151 152 150 156 162 159 163 171 173 173 265 264 237 213 235 239 213 249 290 301 312 287 255 241 231 226 229 239 238 243 234 249 246 259 249 255 249 236 243 244 257 262 264 271 277 279 284 288 283 286
146 147 147 151 155 154 157 159 159 165 175 177 225 280 352 263 170 168 237 257 228 204 270 261 272 273 275 218 231 224 220 225 223 226 236 236 234 233 251 257 257 248 240 238 249 256 263 268 275 275 271 274 278 279
145 148 156 155 157 158 155 152 152 158 188 227 247 247 234 230 195 169 144 26 141 173 260 296 268 289 318 249 213 206 200 215 223 234 232 245 243 234 257 265 261 249 248 246 248 251 259 256 256 262 269 268 269 277
152 155 158 155 149 144 144 149 158 201 252 236 315 223 191 194 202 268 267 216 174 144 179 247 267 306 147 273 274 192 211 215 226 239 238 236 244 234 252 248 263 257 250 249 247 242 248 261 264 262 265 264 265 264
155 153 155 153 143 143 143 154 148 130 105 167 150 128 120 123 180 155 330 267 209 227 244 212 244 290 100 258 271 253 223 246 240 240 237 231 231 230 245 269 271 264 252 251 252 248 245 250 257 262 260 256 253 259
141 139 138 141 142 139 133 136 146 126 70 127 138 103 109 149 198 254 39 70 288 333 278 237 222 262 302 276 267 284 219 252 259 230 202 232 245 256 270 280 287 282 269 262 256 250 244 245 246 251 250 250 245 250
141 140 136 138 139 139 141 138 133 128 56 73 68 82 102 100 136 38 89 227 333 263 229 245 217 263 211 243 274 220 267 259 265 242 206 234 233 328 286 295 290 293 286 259 257 259 255 251 247 246 248 245 241 238
135 137 138 135 135 141 152 157 153 139 81 85 97 99 95 40 59 91 277 295 219 250 217 228 242 226 265 221 248 234 247 246 252 217 228 240 12 342 327 319 319 306 293 280 263 252 244 238 232 233 240 248 240 234
138 136 138 137 132 142 179 184 181 172 141 88 59 61 360 348 65 184 220 235 250 220 239 237 281 251 281 229 244 246 241 232 257 236 257 49 331 328 328 317 325 325 315 314 301 232 225 227 213 220 226 229 232 241
150 148 144 142 134 74 146 204 190 170 123 100 166 267 195 214 239 199 196 203 231 232 261 262 260 245 250 255 256 258 247 248 263 330 1 331 330 320 319 317 324 330 331 336 345 115 146 140 139 82 294 251 182 163
156 163 180 212 255 200 237 177 174 169 131 175 149 231 217 232 244 246 259 279 233 247 253 288 262 248 254 258 246 278 237 273 36 355 309 323 321 318 321 326 327 332 332 336 1 59 89 104 111 100 68 102 130 132
179 229 244 240 219 174 153 146 167 160 157 175 208 258 203 274 255 224 210 252 237 216 218 240 269 268 254 245 237 232 316 3 329 323 315 317 318 314 318 324 323 329 326 332 4 64 95 103 111 112 95 90 96 111
197 217 185 160 169 197 213 179 173 173 198 199 237 231 222 281 249 225 194 236 166 148 238 236 264 234 296 256 262 334 359 317 310 310 310 309 309 311 311 319 326 328 329 347 29 62 80 94 103 92 90 87 88 89
189 184 188 234 228 194 144 143 158 182 234 220 218 211 206 231 236 238 237 217 181 191 161 224 278 244 245 249 278 360 316 310 308 309 307 307 307 305 314 325 333 339 5 34 63 76 83 88 88 91 98 101 91 86
219 219 219 212 196 151 120 120 85 235 234 250 268 241 250 267 243 263 249 236 222 225 238 217 247 235 240 342 318 317 312 311 308 310 305 306 306 324 327 342 357 16 41 55 70 81 80 81 89 93 93 95 94 95
205 236 231 213 167 134 68 355 241 195 263 269 268 250 250 246 290 245 255 208 191 199 214 225 236 341 332 302 303 295 294 297 299 303 307 314 314 336 1 12 25 27 50 77 87 90 86 78 73 82 90 95 95 91
189 176 166 162 112 87 90 130 216 297 295 263 289 304 274 271 255 239 245 199 193 219 239 270 308 304 301 296 291 287 289 294 296 294 295 303 327 356 15 36 57 54 49 61 76 73 71 70 75 87 91 88 88 87
184 183 129 112 91 62 82 18 241 343 259 276 307 326 274 273 256 247 186 202 235 273 295 317 308 308 307 306 305 302 299 309 305 304 315 328 327 348 17 38 75 74 65 64 78 83 81 83 88 91 90 89 89 88
163 146 96 57 70 48 244 4 305 3 269 295 348 329 261 264 243 308 260 243 278 329 310 305 302 300 298 300 307 316 326 327 320 329 333 354 19 34 53 51 64 87 85 67 85 89 89 93 93 94 95 93 93 90
140 71 82 90 62 218 16 17 2 357 354 0 12 291 285 297 346 342 257 275 352 325 331 331 334 326 322 322 327 328 332 334 329 347 7 23 44 41 59 66 66 68 84 92 90 91 91 92 95 93 94 94 92 92
130 353 104 295 339 69 57 353 341 39 256 271 340 295 313 337 285 293 280 317 339 342 339 338 331 323 312 313 325 329 338 343 335 348 9 27 68 78 73 69 66 70 97 97 90 92 90 93 94 95 96 99 100 96
158 279 115 191 254 144 183 178 210 221 202 305 242 287 346 339 305 261 294 331 325 321 330 322 318 317 318 325 326 335 343 351 4 35 18 31 46 65 86 86 83 57 93 107 110 104 101 101 100 98 95 96 99 103
178 237 281 271 103 118 88 23 37 137 177 224 296 330 353 296 265 220 355 21 321 313 310 307 299 295 300 312 324 339 7 36 59 66 66 65 67 82 94 96 90 94 124 122 120 119 113 109 104 104 105 106 104 104
162 179 166 211 87 32 137 110 167 207 236 255 330 280 230 229 291 338 294 327 328 327 332 342 344 334 319 319 328 333 359 65 63 73 81 77 80 81 81 88 99 117 121 125 124 123 120 118 116 114 110 107 105 106
101 107 110 66 53 77 198 183 206 219 352 148 234 278 284 296 304 326 320 330 338 350 341 348 354 5 10 15 17 11 19 73 90 101 88 82 63 53 93 105 109 111 112 112 112 115 117 117 116 113 111 109 108 106
249 350 93 82 137 217 238 184 222 270 278 286 298 294 273 265 252 333 350 353 358 350 351 353 359 4 357 0 356 26 62 107 108 85 113 117 117 120 117 113 114 116 117 113 110 111 110 111 110 109 107 106 103 100
60 70 73 79 185 254 249 310 295 266 342 312 301 246 285 305 273 336 3 360 356 5 9 4 11 16 9 6 3 5 32 72 73 119 135 129 130 130 128 127 127 127 125 123 122 121 120 115 112 109 104 101 98 97
27 83 131 110 276 305 26 51 350 47 329 296 250 314 303 273 278 13 1 4 7 10 8 5 0 354 9 16 23 47 113 118 123 128 130 130 129 129 130 129 128 126 124 121 119 118 115 110 107 104 101 98 96 93
48 66 48 67 35 16 343 68 22 345 3 354 321 343 345 325 294 332 357 359 355 353 355 357 5 16 33 54 79 97 102 108 115 122 125 126 127 129 130 129 128 127 124 120 116 115 112 109 105 102 99 96 93 89